iso_date,epoch_date,Year,Hour,Min,DOY,POS_DOY,Lat,Lon,BP,Ts,Ta,has_bp,has_ts,has_ta,BuoyID,Buoy_Type,Buoy_Owner,Logistics,Hemisphere
2014-05-21T00:00:00Z,1400630400,2014,0,0,141.0,141.0,72.263,-130.4504,-999.00,-2.8,-999.0,no,yes,no,300234060332470,CALIB,unknown,unknown,North
2014-05-21T01:00:28Z,1400634029,2014,1,0,141.042,141.042,72.2634,-130.4468,-999.00,-2.8,-999.0,no,yes,no,300234060332470,CALIB,unknown,unknown,North
2014-05-21T01:59:31Z,1400637571,2014,2,0,141.083,141.083,72.263,-130.4428,-999.00,-2.8,-999.0,no,yes,no,300234060332470,CALIB,unknown,unknown,North
2014-05-21T03:00:00Z,1400641200,2014,3,0,141.125,141.125,72.262,-130.4392,-999.00,-2.9,-999.0,no,yes,no,300234060332470,CALIB,unknown,unknown,North
2014-05-21T04:00:28Z,1400644829,2014,4,0,141.167,141.167,72.2608,-130.4368,-999.00,-2.9,-999.0,no,yes,no,300234060332470,CALIB,unknown,unknown,North
2014-05-21T04:59:31Z,1400648371,2014,5,0,141.208,141.208,72.2592,-130.4352,-999.00,-2.9,-999.0,no,yes,no,300234060332470,CALIB,unknown,unknown,North
2014-05-21T06:00:00Z,1400652000,2014,6,0,141.25,141.25,72.2582,-130.4354,-999.00,-2.9,-999.0,no,yes,no,300234060332470,CALIB,unknown,unknown,North
2014-05-21T07:00:28Z,1400655629,2014,7,0,141.292,141.292,72.2574,-130.4364,-999.00,-2.9,-999.0,no,yes,no,300234060332470,CALIB,unknown,unknown,North
2014-05-21T07:59:31Z,1400659171,2014,8,0,141.333,141.333,72.2572,-130.4378,-999.00,-2.9,-999.0,no,yes,no,300234060332470,CALIB,unknown,unknown,North
2014-05-21T09:00:00Z,1400662800,2014,9,0,141.375,141.375,72.2576,-130.4396,-999.00,-2.9,-999.0,no,yes,no,300234060332470,CALIB,unknown,unknown,North
2014-05-21T10:00:28Z,1400666429,2014,10,0,141.417,141.417,72.2584,-130.44,-999.00,-2.9,-999.0,no,yes,no,300234060332470,CALIB,unknown,unknown,North
2014-05-21T10:59:31Z,1400669971,2014,11,0,141.458,141.458,72.2592,-130.4394,-999.00,-2.9,-999.0,no,yes,no,300234060332470,CALIB,unknown,unknown,North
2014-05-21T12:00:00Z,1400673600,2014,12,0,141.5,141.5,72.26,-130.4378,-999.00,-2.9,-999.0,no,yes,no,300234060332470,CALIB,unknown,unknown,North
2014-05-21T13:00:28Z,1400677229,2014,13,0,141.542,141.542,72.26,-130.4354,-999.00,-2.9,-999.0,no,yes,no,300234060332470,CALIB,unknown,unknown,North
2014-05-21T13:59:31Z,1400680771,2014,14,0,141.583,141.583,72.2596,-130.4322,-999.00,-2.9,-999.0,no,yes,no,300234060332470,CALIB,unknown,unknown,North
2014-05-21T15:00:00Z,1400684400,2014,15,0,141.625,141.625,72.2586,-130.4288,-999.00,-2.9,-999.0,no,yes,no,300234060332470,CALIB,unknown,unknown,North
2014-05-21T16:00:28Z,1400688029,2014,16,0,141.667,141.667,72.2572,-130.4254,-999.00,-2.9,-999.0,no,yes,no,300234060332470,CALIB,unknown,unknown,North
2014-05-21T16:59:31Z,1400691571,2014,17,0,141.708,141.708,72.2558,-130.4218,-999.00,-2.9,-999.0,no,yes,no,300234060332470,CALIB,unknown,unknown,North
2014-05-21T18:00:00Z,1400695200,2014,18,0,141.75,141.75,72.2544,-130.4182,-999.00,-2.9,-999.0,no,yes,no,300234060332470,CALIB,unknown,unknown,North
2014-05-21T19:00:28Z,1400698829,2014,19,0,141.792,141.792,72.2536,-130.414,-999.00,-2.9,-999.0,no,yes,no,300234060332470,CALIB,unknown,unknown,North
2014-05-21T19:59:31Z,1400702371,2014,20,0,141.833,141.833,72.253,-130.4078,-999.00,-2.9,-999.0,no,yes,no,300234060332470,CALIB,unknown,unknown,North
2014-05-21T21:00:00Z,1400706000,2014,21,0,141.875,141.875,72.2528,-130.4004,-999.00,-2.9,-999.0,no,yes,no,300234060332470,CALIB,unknown,unknown,North
2014-05-21T22:00:28Z,1400709629,2014,22,0,141.917,141.917,72.2528,-130.3924,-999.00,-2.9,-999.0,no,yes,no,300234060332470,CALIB,unknown,unknown,North
2014-05-21T22:59:31Z,1400713171,2014,23,0,141.958,141.958,72.2526,-130.3836,-999.00,-2.9,-999.0,no,yes,no,300234060332470,CALIB,unknown,unknown,North
2014-05-22T00:00:00Z,1400716800,2014,0,0,142.0,142.0,72.2524,-130.375,-999.00,-2.9,-999.0,no,yes,no,300234060332470,CALIB,unknown,unknown,North
2014-05-22T01:00:28Z,1400720429,2014,1,0,142.042,142.042,72.252,-130.3668,-999.00,-2.9,-999.0,no,yes,no,300234060332470,CALIB,unknown,unknown,North
2014-05-22T01:59:31Z,1400723971,2014,2,0,142.083,142.083,72.2514,-130.3598,-999.00,-2.9,-999.0,no,yes,no,300234060332470,CALIB,unknown,unknown,North
2014-05-22T03:00:00Z,1400727600,2014,3,0,142.125,142.125,72.25,-130.3538,-999.00,-2.9,-999.0,no,yes,no,300234060332470,CALIB,unknown,unknown,North
2014-05-22T04:00:28Z,1400731229,2014,4,0,142.167,142.167,72.2486,-130.3494,-999.00,-2.9,-999.0,no,yes,no,300234060332470,CALIB,unknown,unknown,North
2014-05-22T04:59:31Z,1400734771,2014,5,0,142.208,142.208,72.2474,-130.3466,-999.00,-2.9,-999.0,no,yes,no,300234060332470,CALIB,unknown,unknown,North
2014-05-22T06:00:00Z,1400738400,2014,6,0,142.25,142.25,72.2462,-130.345,-999.00,-2.9,-999.0,no,yes,no,300234060332470,CALIB,unknown,unknown,North
2014-05-22T07:00:28Z,1400742029,2014,7,0,142.292,142.292,72.2452,-130.344,-999.00,-2.9,-999.0,no,yes,no,300234060332470,CALIB,unknown,unknown,North
2014-05-22T07:59:31Z,1400745571,2014,8,0,142.333,142.333,72.2442,-130.3418,-999.00,-2.9,-999.0,no,yes,no,300234060332470,CALIB,unknown,unknown,North
2014-05-22T09:00:00Z,1400749200,2014,9,0,142.375,142.375,72.2438,-130.338,-999.00,-2.9,-999.0,no,yes,no,300234060332470,CALIB,unknown,unknown,North
2014-05-22T10:00:28Z,1400752829,2014,10,0,142.417,142.417,72.2442,-130.3316,-999.00,-2.9,-999.0,no,yes,no,300234060332470,CALIB,unknown,unknown,North
2014-05-22T10:59:31Z,1400756371,2014,11,0,142.458,142.458,72.245,-130.3232,-999.00,-2.9,-999.0,no,yes,no,300234060332470,CALIB,unknown,unknown,North
2014-05-22T12:00:00Z,1400760000,2014,12,0,142.5,142.5,72.246,-130.3144,-999.00,-2.9,-999.0,no,yes,no,300234060332470,CALIB,unknown,unknown,North
2014-05-22T13:00:28Z,1400763629,2014,13,0,142.542,142.542,72.2466,-130.3044,-999.00,-2.9,-999.0,no,yes,no,300234060332470,CALIB,unknown,unknown,North
2014-05-22T13:59:31Z,1400767171,2014,14,0,142.583,142.583,72.247,-130.2936,-999.00,-2.9,-999.0,no,yes,no,300234060332470,CALIB,unknown,unknown,North
2014-05-22T15:00:00Z,1400770800,2014,15,0,142.625,142.625,72.247,-130.2824,-999.00,-2.9,-999.0,no,yes,no,300234060332470,CALIB,unknown,unknown,North
2014-05-22T16:00:28Z,1400774429,2014,16,0,142.667,142.667,72.247,-130.271,-999.00,-2.9,-999.0,no,yes,no,300234060332470,CALIB,unknown,unknown,North
2014-05-22T16:59:31Z,1400777971,2014,17,0,142.708,142.708,72.2474,-130.2598,-999.00,-2.9,-999.0,no,yes,no,300234060332470,CALIB,unknown,unknown,North
2014-05-22T18:00:00Z,1400781600,2014,18,0,142.75,142.75,72.248,-130.248,-999.00,-2.9,-999.0,no,yes,no,300234060332470,CALIB,unknown,unknown,North
2014-05-22T19:00:28Z,1400785229,2014,19,0,142.792,142.792,72.2492,-130.2364,-999.00,-2.9,-999.0,no,yes,no,300234060332470,CALIB,unknown,unknown,North
2014-05-22T19:59:31Z,1400788771,2014,20,0,142.833,142.833,72.251,-130.225,-999.00,-2.9,-999.0,no,yes,no,300234060332470,CALIB,unknown,unknown,North
2014-05-22T21:00:00Z,1400792400,2014,21,0,142.875,142.875,72.2526,-130.2132,-999.00,-2.9,-999.0,no,yes,no,300234060332470,CALIB,unknown,unknown,North
2014-05-22T22:00:28Z,1400796029,2014,22,0,142.917,142.917,72.2536,-130.201,-999.00,-2.9,-999.0,no,yes,no,300234060332470,CALIB,unknown,unknown,North
2014-05-22T22:59:31Z,1400799571,2014,23,0,142.958,142.958,72.254,-130.1878,-999.00,-2.9,-999.0,no,yes,no,300234060332470,CALIB,unknown,unknown,North
2014-05-23T00:00:00Z,1400803200,2014,0,0,143.0,143.0,72.2538,-130.1754,-999.00,-2.9,-999.0,no,yes,no,300234060332470,CALIB,unknown,unknown,North
2014-05-23T01:00:28Z,1400806829,2014,1,0,143.042,143.042,72.253,-130.164,-999.00,-2.8,-999.0,no,yes,no,300234060332470,CALIB,unknown,unknown,North
2014-05-23T01:59:31Z,1400810371,2014,2,0,143.083,143.083,72.252,-130.154,-999.00,-2.8,-999.0,no,yes,no,300234060332470,CALIB,unknown,unknown,North
2014-05-23T03:00:00Z,1400814000,2014,3,0,143.125,143.125,72.2502,-130.146,-999.00,-2.8,-999.0,no,yes,no,300234060332470,CALIB,unknown,unknown,North
2014-05-23T04:00:28Z,1400817629,2014,4,0,143.167,143.167,72.248,-130.1402,-999.00,-2.8,-999.0,no,yes,no,300234060332470,CALIB,unknown,unknown,North
2014-05-23T04:59:31Z,1400821171,2014,5,0,143.208,143.208,72.2456,-130.1354,-999.00,-2.8,-999.0,no,yes,no,300234060332470,CALIB,unknown,unknown,North
2014-05-23T06:00:00Z,1400824800,2014,6,0,143.25,143.25,72.2434,-130.132,-999.00,-2.8,-999.0,no,yes,no,300234060332470,CALIB,unknown,unknown,North
2014-05-23T07:00:28Z,1400828429,2014,7,0,143.292,143.292,72.2418,-130.1298,-999.00,-2.8,-999.0,no,yes,no,300234060332470,CALIB,unknown,unknown,North
2014-05-23T07:59:31Z,1400831971,2014,8,0,143.333,143.333,72.2404,-130.1286,-999.00,-2.8,-999.0,no,yes,no,300234060332470,CALIB,unknown,unknown,North
2014-05-23T09:00:00Z,1400835600,2014,9,0,143.375,143.375,72.24,-130.129,-999.00,-2.8,-999.0,no,yes,no,300234060332470,CALIB,unknown,unknown,North
2014-05-23T10:00:28Z,1400839229,2014,10,0,143.417,143.417,72.24,-130.1292,-999.00,-2.8,-999.0,no,yes,no,300234060332470,CALIB,unknown,unknown,North
2014-05-23T10:59:31Z,1400842771,2014,11,0,143.458,143.458,72.2404,-130.129,-999.00,-2.8,-999.0,no,yes,no,300234060332470,CALIB,unknown,unknown,North
2014-05-23T12:00:00Z,1400846400,2014,12,0,143.5,143.5,72.2406,-130.1286,-999.00,-2.8,-999.0,no,yes,no,300234060332470,CALIB,unknown,unknown,North
2014-05-23T13:00:28Z,1400850029,2014,13,0,143.542,143.542,72.2402,-130.1284,-999.00,-2.8,-999.0,no,yes,no,300234060332470,CALIB,unknown,unknown,North
2014-05-23T13:59:31Z,1400853571,2014,14,0,143.583,143.583,72.2396,-130.128,-999.00,-2.8,-999.0,no,yes,no,300234060332470,CALIB,unknown,unknown,North
2014-05-23T15:00:00Z,1400857200,2014,15,0,143.625,143.625,72.2382,-130.1272,-999.00,-2.8,-999.0,no,yes,no,300234060332470,CALIB,unknown,unknown,North
2014-05-23T16:00:28Z,1400860829,2014,16,0,143.667,143.667,72.2368,-130.1268,-999.00,-2.8,-999.0,no,yes,no,300234060332470,CALIB,unknown,unknown,North
2014-05-23T16:59:31Z,1400864371,2014,17,0,143.708,143.708,72.2352,-130.1272,-999.00,-2.8,-999.0,no,yes,no,300234060332470,CALIB,unknown,unknown,North
2014-05-23T18:00:00Z,1400868000,2014,18,0,143.75,143.75,72.2332,-130.1278,-999.00,-2.8,-999.0,no,yes,no,300234060332470,CALIB,unknown,unknown,North
2014-05-23T19:00:28Z,1400871629,2014,19,0,143.792,143.792,72.2312,-130.1284,-999.00,-2.8,-999.0,no,yes,no,300234060332470,CALIB,unknown,unknown,North
2014-05-23T19:59:31Z,1400875171,2014,20,0,143.833,143.833,72.229,-130.1282,-999.00,-2.8,-999.0,no,yes,no,300234060332470,CALIB,unknown,unknown,North
2014-05-23T21:00:00Z,1400878800,2014,21,0,143.875,143.875,72.2266,-130.127,-999.00,-2.7,-999.0,no,yes,no,300234060332470,CALIB,unknown,unknown,North
2014-05-23T22:00:28Z,1400882429,2014,22,0,143.917,143.917,72.2244,-130.1248,-999.00,-2.7,-999.0,no,yes,no,300234060332470,CALIB,unknown,unknown,North
2014-05-23T22:59:31Z,1400885971,2014,23,0,143.958,143.958,72.2222,-130.1218,-999.00,-2.7,-999.0,no,yes,no,300234060332470,CALIB,unknown,unknown,North
2014-05-24T00:00:00Z,1400889600,2014,0,0,144.0,144.0,72.2198,-130.1184,-999.00,-2.7,-999.0,no,yes,no,300234060332470,CALIB,unknown,unknown,North
2014-05-24T01:00:28Z,1400893229,2014,1,0,144.042,144.042,72.2172,-130.1146,-999.00,-2.7,-999.0,no,yes,no,300234060332470,CALIB,unknown,unknown,North
2014-05-24T01:59:31Z,1400896771,2014,2,0,144.083,144.083,72.2148,-130.1112,-999.00,-2.7,-999.0,no,yes,no,300234060332470,CALIB,unknown,unknown,North
2014-05-24T03:00:00Z,1400900400,2014,3,0,144.125,144.125,72.2126,-130.1088,-999.00,-2.7,-999.0,no,yes,no,300234060332470,CALIB,unknown,unknown,North
2014-05-24T04:00:28Z,1400904029,2014,4,0,144.167,144.167,72.211,-130.1074,-999.00,-2.7,-999.0,no,yes,no,300234060332470,CALIB,unknown,unknown,North
2014-05-24T04:59:31Z,1400907571,2014,5,0,144.208,144.208,72.2098,-130.106,-999.00,-2.7,-999.0,no,yes,no,300234060332470,CALIB,unknown,unknown,North
2014-05-24T06:00:00Z,1400911200,2014,6,0,144.25,144.25,72.2092,-130.1044,-999.00,-2.7,-999.0,no,yes,no,300234060332470,CALIB,unknown,unknown,North
2014-05-24T07:00:28Z,1400914829,2014,7,0,144.292,144.292,72.209,-130.1024,-999.00,-2.7,-999.0,no,yes,no,300234060332470,CALIB,unknown,unknown,North
2014-05-24T07:59:31Z,1400918371,2014,8,0,144.333,144.333,72.209,-130.0994,-999.00,-2.7,-999.0,no,yes,no,300234060332470,CALIB,unknown,unknown,North
2014-05-24T09:00:00Z,1400922000,2014,9,0,144.375,144.375,72.209,-130.0954,-999.00,-2.7,-999.0,no,yes,no,300234060332470,CALIB,unknown,unknown,North
2014-05-24T10:00:28Z,1400925629,2014,10,0,144.417,144.417,72.2088,-130.0906,-999.00,-2.7,-999.0,no,yes,no,300234060332470,CALIB,unknown,unknown,North
2014-05-24T10:59:31Z,1400929171,2014,11,0,144.458,144.458,72.2088,-130.0854,-999.00,-2.7,-999.0,no,yes,no,300234060332470,CALIB,unknown,unknown,North
2014-05-24T12:00:00Z,1400932800,2014,12,0,144.5,144.5,72.2088,-130.0802,-999.00,-2.7,-999.0,no,yes,no,300234060332470,CALIB,unknown,unknown,North
2014-05-24T13:00:28Z,1400936429,2014,13,0,144.542,144.542,72.2088,-130.0758,-999.00,-2.7,-999.0,no,yes,no,300234060332470,CALIB,unknown,unknown,North
2014-05-24T13:59:31Z,1400939971,2014,14,0,144.583,144.583,72.2086,-130.0724,-999.00,-2.7,-999.0,no,yes,no,300234060332470,CALIB,unknown,unknown,North
2014-05-24T15:00:00Z,1400943600,2014,15,0,144.625,144.625,72.2082,-130.0694,-999.00,-2.7,-999.0,no,yes,no,300234060332470,CALIB,unknown,unknown,North
2014-05-24T16:00:28Z,1400947229,2014,16,0,144.667,144.667,72.208,-130.0666,-999.00,-2.7,-999.0,no,yes,no,300234060332470,CALIB,unknown,unknown,North
2014-05-24T16:59:31Z,1400950771,2014,17,0,144.708,144.708,72.2078,-130.0622,-999.00,-2.7,-999.0,no,yes,no,300234060332470,CALIB,unknown,unknown,North
2014-05-24T18:00:00Z,1400954400,2014,18,0,144.75,144.75,72.2076,-130.0564,-999.00,-2.7,-999.0,no,yes,no,300234060332470,CALIB,unknown,unknown,North
2014-05-24T19:00:28Z,1400958029,2014,19,0,144.792,144.792,72.2074,-130.0476,-999.00,-2.7,-999.0,no,yes,no,300234060332470,CALIB,unknown,unknown,North
2014-05-24T19:59:31Z,1400961571,2014,20,0,144.833,144.833,72.2072,-130.0362,-999.00,-2.7,-999.0,no,yes,no,300234060332470,CALIB,unknown,unknown,North
2014-05-24T21:00:00Z,1400965200,2014,21,0,144.875,144.875,72.2066,-130.0238,-999.00,-2.7,-999.0,no,yes,no,300234060332470,CALIB,unknown,unknown,North
2014-05-24T22:00:28Z,1400968829,2014,22,0,144.917,144.917,72.2058,-130.0116,-999.00,-2.7,-999.0,no,yes,no,300234060332470,CALIB,unknown,unknown,North
2014-05-24T22:59:31Z,1400972371,2014,23,0,144.958,144.958,72.2046,-130.0004,-999.00,-2.7,-999.0,no,yes,no,300234060332470,CALIB,unknown,unknown,North
2014-05-25T00:00:00Z,1400976000,2014,0,0,145.0,145.0,72.2034,-129.9918,-999.00,-2.7,-999.0,no,yes,no,300234060332470,CALIB,unknown,unknown,North
2014-05-25T01:00:28Z,1400979629,2014,1,0,145.042,145.042,72.2022,-129.9862,-999.00,-2.7,-999.0,no,yes,no,300234060332470,CALIB,unknown,unknown,North
2014-05-25T01:59:31Z,1400983171,2014,2,0,145.083,145.083,72.2012,-129.9832,-999.00,-2.8,-999.0,no,yes,no,300234060332470,CALIB,unknown,unknown,North
2014-05-25T03:00:00Z,1400986800,2014,3,0,145.125,145.125,72.2004,-129.9824,-999.00,-2.8,-999.0,no,yes,no,300234060332470,CALIB,unknown,unknown,North
2014-05-25T04:00:28Z,1400990429,2014,4,0,145.167,145.167,72.2,-129.9828,-999.00,-2.8,-999.0,no,yes,no,300234060332470,CALIB,unknown,unknown,North
2014-05-25T04:59:31Z,1400993971,2014,5,0,145.208,145.208,72.1998,-129.9832,-999.00,-2.8,-999.0,no,yes,no,300234060332470,CALIB,unknown,unknown,North
2014-05-25T06:00:00Z,1400997600,2014,6,0,145.25,145.25,72.1996,-129.983,-999.00,-2.8,-999.0,no,yes,no,300234060332470,CALIB,unknown,unknown,North
2014-05-25T07:00:28Z,1401001229,2014,7,0,145.292,145.292,72.1996,-129.9824,-999.00,-2.8,-999.0,no,yes,no,300234060332470,CALIB,unknown,unknown,North
2014-05-25T07:59:31Z,1401004771,2014,8,0,145.333,145.333,72.1996,-129.9816,-999.00,-2.8,-999.0,no,yes,no,300234060332470,CALIB,unknown,unknown,North
2014-05-25T09:00:00Z,1401008400,2014,9,0,145.375,145.375,72.1994,-129.9808,-999.00,-2.8,-999.0,no,yes,no,300234060332470,CALIB,unknown,unknown,North
2014-05-25T10:00:28Z,1401012029,2014,10,0,145.417,145.417,72.1994,-129.9804,-999.00,-2.8,-999.0,no,yes,no,300234060332470,CALIB,unknown,unknown,North
2014-05-25T10:59:31Z,1401015571,2014,11,0,145.458,145.458,72.1994,-129.9804,-999.00,-2.9,-999.0,no,yes,no,300234060332470,CALIB,unknown,unknown,North
2014-05-25T12:00:00Z,1401019200,2014,12,0,145.5,145.5,72.1994,-129.9804,-999.00,-2.9,-999.0,no,yes,no,300234060332470,CALIB,unknown,unknown,North
2014-05-25T13:00:28Z,1401022829,2014,13,0,145.542,145.542,72.1992,-129.9804,-999.00,-2.9,-999.0,no,yes,no,300234060332470,CALIB,unknown,unknown,North
2014-05-25T13:59:31Z,1401026371,2014,14,0,145.583,145.583,72.1992,-129.9808,-999.00,-2.9,-999.0,no,yes,no,300234060332470,CALIB,unknown,unknown,North
2014-05-25T15:00:00Z,1401030000,2014,15,0,145.625,145.625,72.1992,-129.9814,-999.00,-2.9,-999.0,no,yes,no,300234060332470,CALIB,unknown,unknown,North
2014-05-25T16:00:28Z,1401033629,2014,16,0,145.667,145.667,72.1992,-129.982,-999.00,-2.9,-999.0,no,yes,no,300234060332470,CALIB,unknown,unknown,North
2014-05-25T16:59:31Z,1401037171,2014,17,0,145.708,145.708,72.199,-129.9834,-999.00,-2.9,-999.0,no,yes,no,300234060332470,CALIB,unknown,unknown,North
2014-05-25T18:00:00Z,1401040800,2014,18,0,145.75,145.75,72.1988,-129.9848,-999.00,-2.9,-999.0,no,yes,no,300234060332470,CALIB,unknown,unknown,North
2014-05-25T19:00:28Z,1401044429,2014,19,0,145.792,145.792,72.1986,-129.9858,-999.00,-2.9,-999.0,no,yes,no,300234060332470,CALIB,unknown,unknown,North
2014-05-25T19:59:31Z,1401047971,2014,20,0,145.833,145.833,72.1984,-129.987,-999.00,-2.9,-999.0,no,yes,no,300234060332470,CALIB,unknown,unknown,North
2014-05-25T21:00:00Z,1401051600,2014,21,0,145.875,145.875,72.1984,-129.9884,-999.00,-2.9,-999.0,no,yes,no,300234060332470,CALIB,unknown,unknown,North
2014-05-25T22:00:28Z,1401055229,2014,22,0,145.917,145.917,72.1982,-129.9902,-999.00,-2.9,-999.0,no,yes,no,300234060332470,CALIB,unknown,unknown,North
2014-05-25T22:59:31Z,1401058771,2014,23,0,145.958,145.958,72.1982,-129.9922,-999.00,-2.9,-999.0,no,yes,no,300234060332470,CALIB,unknown,unknown,North
2014-05-26T00:00:00Z,1401062400,2014,0,0,146.0,146.0,72.1984,-129.9952,-999.00,-2.9,-999.0,no,yes,no,300234060332470,CALIB,unknown,unknown,North
2014-05-26T01:00:28Z,1401066029,2014,1,0,146.042,146.042,72.1988,-129.9992,-999.00,-2.9,-999.0,no,yes,no,300234060332470,CALIB,unknown,unknown,North
2014-05-26T01:59:31Z,1401069571,2014,2,0,146.083,146.083,72.199,-130.0048,-999.00,-2.9,-999.0,no,yes,no,300234060332470,CALIB,unknown,unknown,North
2014-05-26T03:00:00Z,1401073200,2014,3,0,146.125,146.125,72.1994,-130.0116,-999.00,-2.9,-999.0,no,yes,no,300234060332470,CALIB,unknown,unknown,North
2014-05-26T04:00:28Z,1401076829,2014,4,0,146.167,146.167,72.1996,-130.0184,-999.00,-2.9,-999.0,no,yes,no,300234060332470,CALIB,unknown,unknown,North
2014-05-26T04:59:31Z,1401080371,2014,5,0,146.208,146.208,72.1996,-130.0246,-999.00,-2.9,-999.0,no,yes,no,300234060332470,CALIB,unknown,unknown,North
2014-05-26T06:00:00Z,1401084000,2014,6,0,146.25,146.25,72.1994,-130.0292,-999.00,-2.9,-999.0,no,yes,no,300234060332470,CALIB,unknown,unknown,North
2014-05-26T07:00:28Z,1401087629,2014,7,0,146.292,146.292,72.1986,-130.0322,-999.00,-2.9,-999.0,no,yes,no,300234060332470,CALIB,unknown,unknown,North
2014-05-26T07:59:31Z,1401091171,2014,8,0,146.333,146.333,72.1974,-130.0338,-999.00,-2.8,-999.0,no,yes,no,300234060332470,CALIB,unknown,unknown,North
2014-05-26T09:00:00Z,1401094800,2014,9,0,146.375,146.375,72.196,-130.0342,-999.00,-2.8,-999.0,no,yes,no,300234060332470,CALIB,unknown,unknown,North
2014-05-26T10:00:28Z,1401098429,2014,10,0,146.417,146.417,72.1948,-130.0336,-999.00,-2.8,-999.0,no,yes,no,300234060332470,CALIB,unknown,unknown,North
2014-05-26T10:59:31Z,1401101971,2014,11,0,146.458,146.458,72.1936,-130.0324,-999.00,-2.8,-999.0,no,yes,no,300234060332470,CALIB,unknown,unknown,North
2014-05-26T12:00:00Z,1401105600,2014,12,0,146.5,146.5,72.1924,-130.0314,-999.00,-2.8,-999.0,no,yes,no,300234060332470,CALIB,unknown,unknown,North
2014-05-26T13:00:28Z,1401109229,2014,13,0,146.542,146.542,72.1916,-130.0304,-999.00,-2.8,-999.0,no,yes,no,300234060332470,CALIB,unknown,unknown,North
2014-05-26T13:59:31Z,1401112771,2014,14,0,146.583,146.583,72.1908,-130.0296,-999.00,-2.8,-999.0,no,yes,no,300234060332470,CALIB,unknown,unknown,North
2014-05-26T15:00:00Z,1401116400,2014,15,0,146.625,146.625,72.1898,-130.029,-999.00,-2.8,-999.0,no,yes,no,300234060332470,CALIB,unknown,unknown,North
2014-05-26T16:00:28Z,1401120029,2014,16,0,146.667,146.667,72.1888,-130.0286,-999.00,-2.8,-999.0,no,yes,no,300234060332470,CALIB,unknown,unknown,North
2014-05-26T16:59:31Z,1401123571,2014,17,0,146.708,146.708,72.188,-130.0274,-999.00,-2.8,-999.0,no,yes,no,300234060332470,CALIB,unknown,unknown,North
2014-05-26T18:00:00Z,1401127200,2014,18,0,146.75,146.75,72.1874,-130.025,-999.00,-2.8,-999.0,no,yes,no,300234060332470,CALIB,unknown,unknown,North
2014-05-26T19:00:28Z,1401130829,2014,19,0,146.792,146.792,72.187,-130.022,-999.00,-2.8,-999.0,no,yes,no,300234060332470,CALIB,unknown,unknown,North
2014-05-26T19:59:31Z,1401134371,2014,20,0,146.833,146.833,72.1864,-130.0184,-999.00,-2.8,-999.0,no,yes,no,300234060332470,CALIB,unknown,unknown,North
2014-05-26T21:00:00Z,1401138000,2014,21,0,146.875,146.875,72.1858,-130.0148,-999.00,-2.8,-999.0,no,yes,no,300234060332470,CALIB,unknown,unknown,North
2014-05-26T22:00:28Z,1401141629,2014,22,0,146.917,146.917,72.1852,-130.0108,-999.00,-2.8,-999.0,no,yes,no,300234060332470,CALIB,unknown,unknown,North
2014-05-26T22:59:31Z,1401145171,2014,23,0,146.958,146.958,72.185,-130.0076,-999.00,-2.8,-999.0,no,yes,no,300234060332470,CALIB,unknown,unknown,North
2014-05-27T00:00:00Z,1401148800,2014,0,0,147.0,147.0,72.1852,-130.0056,-999.00,-2.8,-999.0,no,yes,no,300234060332470,CALIB,unknown,unknown,North
2014-05-27T01:00:28Z,1401152429,2014,1,0,147.042,147.042,72.1866,-130.0056,-999.00,-2.8,-999.0,no,yes,no,300234060332470,CALIB,unknown,unknown,North
2014-05-27T01:59:31Z,1401155971,2014,2,0,147.083,147.083,72.1884,-130.0076,-999.00,-2.9,-999.0,no,yes,no,300234060332470,CALIB,unknown,unknown,North
2014-05-27T03:00:00Z,1401159600,2014,3,0,147.125,147.125,72.1902,-130.0114,-999.00,-2.9,-999.0,no,yes,no,300234060332470,CALIB,unknown,unknown,North
2014-05-27T04:00:28Z,1401163229,2014,4,0,147.167,147.167,72.1916,-130.0164,-999.00,-2.9,-999.0,no,yes,no,300234060332470,CALIB,unknown,unknown,North
2014-05-27T04:59:31Z,1401166771,2014,5,0,147.208,147.208,72.1932,-130.023,-999.00,-2.9,-999.0,no,yes,no,300234060332470,CALIB,unknown,unknown,North
2014-05-27T06:00:00Z,1401170400,2014,6,0,147.25,147.25,72.1944,-130.0286,-999.00,-2.9,-999.0,no,yes,no,300234060332470,CALIB,unknown,unknown,North
2014-05-27T07:00:28Z,1401174029,2014,7,0,147.292,147.292,72.1954,-130.0346,-999.00,-2.9,-999.0,no,yes,no,300234060332470,CALIB,unknown,unknown,North
2014-05-27T07:59:31Z,1401177571,2014,8,0,147.333,147.333,72.1962,-130.0388,-999.00,-2.9,-999.0,no,yes,no,300234060332470,CALIB,unknown,unknown,North
2014-05-27T09:00:00Z,1401181200,2014,9,0,147.375,147.375,72.1966,-130.0416,-999.00,-2.9,-999.0,no,yes,no,300234060332470,CALIB,unknown,unknown,North
2014-05-27T10:00:28Z,1401184829,2014,10,0,147.417,147.417,72.1968,-130.0436,-999.00,-2.9,-999.0,no,yes,no,300234060332470,CALIB,unknown,unknown,North
2014-05-27T10:59:31Z,1401188371,2014,11,0,147.458,147.458,72.1966,-130.0448,-999.00,-2.9,-999.0,no,yes,no,300234060332470,CALIB,unknown,unknown,North
2014-05-27T12:00:00Z,1401192000,2014,12,0,147.5,147.5,72.196,-130.0456,-999.00,-2.9,-999.0,no,yes,no,300234060332470,CALIB,unknown,unknown,North
2014-05-27T13:00:28Z,1401195629,2014,13,0,147.542,147.542,72.195,-130.046,-999.00,-2.9,-999.0,no,yes,no,300234060332470,CALIB,unknown,unknown,North
2014-05-27T13:59:31Z,1401199171,2014,14,0,147.583,147.583,72.1938,-130.0462,-999.00,-2.9,-999.0,no,yes,no,300234060332470,CALIB,unknown,unknown,North
2014-05-27T15:00:00Z,1401202800,2014,15,0,147.625,147.625,72.1926,-130.0472,-999.00,-2.9,-999.0,no,yes,no,300234060332470,CALIB,unknown,unknown,North